Theta_e
346 346 343 341 339 337 336 336 336 336 335 335 334 333 333 330 325 317 314 314 316 316 314 314 313 313 312 311 312 311 311 311 311 311 311 311 310 310 310 310 310 314 323 329 332 331 330 331 331 330 331 331 330 331 334 335 335 336 335 336 336 336 336 337 337 337 337 337 337 337 336 336 336 336 335 335 335 335 335 335 334 334 334 334 332
346 346 343 341 338 337 336 336 336 336 336 336 335 334 333 331 327 319 313 314 316 316 314 314 313 312 312 312 312 311 311 311 311 311 311 311 310 309 310 310 310 312 316 324 330 332 332 332 332 332 331 332 331 332 333 334 334 335 335 335 336 336 336 337 337 337 338 338 338 337 337 337 337 336 336 336 335 335 335 335 334 333 334 334 332
346 346 343 339 337 336 336 336 336 336 336 336 335 335 334 332 328 320 313 314 315 316 315 314 314 312 312 312 312 313 312 311 311 311 311 311 310 309 310 310 310 310 311 318 327 330 332 332 332 332 331 332 332 332 333 334 334 334 335 336 336 336 336 336 336 337 338 338 337 337 337 337 337 337 336 336 335 334 334 334 333 331 332 332 331
345 344 341 338 336 336 336 336 336 336 336 337 336 335 334 331 328 322 315 313 314 315 315 315 314 313 312 312 313 313 312 311 311 311 311 311 310 310 310 310 310 310 311 314 320 326 329 332 331 330 330 331 332 331 331 333 333 333 334 335 335 335 335 334 334 334 334 335 336 335 335 336 335 335 334 332 331 329 328 328 327 327 327 327 326
344 342 339 336 335 335 335 335 336 336 337 337 337 336 334 331 329 326 318 313 314 315 315 315 315 314 313 313 313 313 313 312 312 311 311 311 311 311 311 311 310 310 311 313 316 322 327 330 329 328 329 330 331 331 331 332 332 332 332 333 334 335 334 334 334 332 330 331 333 332 330 328 327 327 326 323 322 320 319 320 321 321 321 320 319
343 340 337 334 334 334 334 335 335 336 337 338 337 337 334 331 330 329 323 316 313 314 315 315 315 315 314 314 314 313 313 312 312 312 311 311 312 312 312 311 311 311 310 312 315 320 325 328 327 327 329 329 330 331 331 331 331 332 332 332 333 333 332 333 332 329 327 328 331 331 327 322 319 318 318 316 315 314 315 320 321 318 318 316 314
342 338 336 333 333 332 333 334 335 336 337 339 338 337 335 331 330 331 328 322 316 313 313 314 315 315 315 314 314 313 313 313 312 312 311 311 312 312 313 311 318 322 317 311 315 320 325 326 326 327 329 330 331 331 331 331 331 331 332 332 331 331 330 330 328 323 323 324 325 327 326 319 314 315 317 317 316 314 316 320 319 316 315 313 311
340 338 335 333 332 331 332 333 334 336 337 339 338 338 337 332 330 331 331 328 323 318 315 313 314 314 314 314 314 313 313 313 313 312 311 311 311 313 313 313 323 329 322 312 313 319 323 324 326 328 329 331 331 331 331 331 331 332 332 331 330 328 328 329 326 320 320 320 319 320 320 315 309 310 315 318 317 315 316 315 313 312 311 310 310
339 337 335 333 331 331 331 332 333 335 337 339 339 339 338 334 330 331 332 331 329 325 321 316 313 313 314 314 313 313 313 313 313 313 312 312 312 313 313 314 320 321 315 310 312 318 321 324 327 328 330 331 330 330 330 331 331 332 332 330 328 326 325 328 326 322 322 321 320 317 314 312 308 311 315 316 315 312 311 311 311 311 310 309 308
338 336 334 332 331 330 330 331 333 335 337 338 340 339 339 336 330 329 332 332 332 331 328 324 318 314 313 313 313 313 314 313 313 313 312 312 312 313 313 313 316 314 311 310 310 315 320 324 327 329 330 330 331 330 330 331 332 332 331 329 327 325 324 326 327 326 325 324 322 315 310 310 309 313 315 316 317 315 313 313 315 315 312 312 311
336 335 333 332 330 329 329 330 332 335 337 338 340 340 339 338 333 329 331 333 332 332 331 330 326 320 315 313 313 314 314 314 313 312 313 313 312 312 312 313 314 313 311 310 310 313 319 323 326 328 329 330 331 329 329 332 333 332 331 328 326 325 325 327 328 327 327 324 320 312 309 310 309 309 310 316 319 315 313 313 317 318 317 319 319
334 334 333 332 329 328 327 329 332 335 336 338 340 340 340 339 336 330 330 333 333 333 332 332 331 328 322 317 314 314 314 314 313 312 313 313 313 313 313 313 314 314 312 310 309 311 317 323 325 327 328 329 329 329 331 332 333 332 330 328 326 325 326 326 326 325 324 322 315 310 309 309 309 308 310 318 318 313 311 314 320 322 323 325 325
334 333 332 330 327 325 325 327 331 334 336 338 339 340 340 340 339 333 330 331 332 333 333 332 332 331 328 323 318 315 314 314 314 312 314 314 314 314 313 314 314 314 313 310 309 309 313 320 325 326 327 328 329 331 332 333 332 331 330 328 327 326 326 326 324 320 318 315 311 309 310 309 309 309 310 313 312 309 310 316 320 320 321 324 324
333 331 331 328 325 324 323 326 331 335 337 338 339 340 340 340 339 336 331 330 333 333 333 333 332 331 330 327 322 318 315 314 315 314 315 315 315 315 315 315 315 315 313 310 308 309 310 316 323 324 325 329 331 332 332 332 332 331 330 328 327 326 325 324 320 315 311 310 310 310 310 310 309 309 309 309 309 309 309 312 314 313 315 317 318
333 329 328 324 326 327 325 329 333 336 337 338 339 340 340 340 340 338 332 329 333 333 334 333 332 331 329 327 325 321 316 314 315 315 317 317 316 317 317 316 316 316 313 311 308 308 309 313 320 321 326 331 332 332 332 332 332 331 329 328 328 327 324 321 316 312 310 309 310 311 311 310 310 310 310 309 309 309 309 309 309 310 312 313 313
334 328 324 322 329 331 330 333 334 335 337 338 339 339 340 340 340 339 334 331 333 334 334 334 332 331 329 328 327 325 319 316 315 318 321 321 320 319 319 319 319 317 314 312 310 308 309 311 316 322 329 332 332 331 331 332 331 330 329 329 328 325 325 321 313 309 309 309 310 310 311 310 310 310 310 310 310 309 310 310 309 309 309 310 311
334 326 322 324 331 331 331 333 333 335 336 338 338 339 339 340 340 339 336 334 333 335 334 334 332 329 329 329 330 329 322 318 319 323 327 326 326 324 323 324 323 319 315 313 311 309 309 311 315 325 332 331 331 331 331 331 330 329 328 328 327 326 327 322 313 309 309 309 309 310 310 311 310 310 311 310 310 310 310 309 309 309 309 309 310
334 325 321 325 330 330 330 332 334 334 335 336 337 338 338 339 339 338 338 335 334 335 334 334 331 328 330 330 332 331 324 322 323 327 330 330 331 329 327 328 324 320 316 314 313 311 310 311 318 327 331 330 330 331 332 331 331 330 329 329 329 329 328 322 314 309 309 309 309 310 310 310 310 311 311 311 310 310 310 309 309 309 309 309 309
337 325 321 327 330 329 329 330 332 332 332 334 336 336 337 338 338 338 337 335 334 335 335 334 331 329 331 332 333 330 326 328 329 330 332 333 333 332 332 329 325 321 318 316 315 314 312 311 319 326 329 330 331 332 333 332 332 332 331 331 330 330 328 326 319 310 307 309 309 309 310 309 310 310 310 310 309 309 309 308 308 308 308 308 308
339 325 321 327 329 329 328 327 328 328 328 330 333 334 335 336 337 338 337 335 335 335 335 333 331 331 332 333 333 330 330 330 330 331 332 333 334 334 333 328 325 323 319 319 318 317 315 311 316 324 327 329 332 332 332 332 332 332 331 331 329 330 329 328 324 312 306 308 308 309 309 309 309 309 309 308 308 308 308 308 307 308 307 307 307
338 325 322 328 328 327 327 327 327 325 325 325 327 329 331 332 333 336 336 335 336 335 334 332 332 333 334 334 333 331 333 332 329 329 330 331 332 333 331 325 325 325 321 321 321 320 319 315 314 321 326 329 332 331 331 331 330 331 331 331 329 329 329 327 325 316 308 307 307 307 308 308 308 307 307 307 307 307 307 307 307 307 307 306 307
334 323 324 328 328 327 327 328 327 325 323 321 320 322 325 326 328 332 334 334 334 334 332 332 333 334 334 334 333 332 334 333 331 329 327 326 327 329 328 324 325 325 322 323 324 323 322 319 314 317 324 329 331 330 330 330 330 330 330 330 329 329 329 327 326 321 314 308 308 308 307 307 307 306 306 306 306 306 306 306 306 306 305 305 305
328 323 327 328 329 329 329 329 328 327 325 322 320 319 321 321 324 327 329 332 333 332 331 333 334 335 334 334 332 332 333 333 331 331 328 321 320 323 324 324 324 324 323 324 325 325 324 322 317 315 321 328 330 331 331 331 331 329 327 329 331 330 329 327 326 325 318 311 309 309 309 308 307 306 306 306 306 305 306 305 305 305 305 305 305
325 326 329 329 331 330 330 330 329 329 327 325 323 321 320 319 321 324 326 329 331 331 331 333 335 334 334 333 331 331 332 331 331 333 330 325 322 322 323 322 321 322 323 324 325 325 324 322 319 316 321 328 330 331 331 332 331 330 328 329 330 330 330 329 328 328 321 313 310 311 312 311 310 308 307 306 306 306 305 305 305 305 305 305 305
325 328 330 330 331 330 331 331 330 330 327 326 324 322 320 319 322 324 325 327 329 331 331 332 334 334 334 334 332 331 331 331 331 333 331 329 328 326 325 323 319 319 321 324 325 325 324 323 320 319 321 326 328 331 331 331 331 330 329 328 330 331 331 331 330 330 325 317 314 314 314 314 313 310 308 307 307 306 306 305 305 305 305 305 306
329 330 329 330 330 330 331 331 331 330 329 327 324 322 320 319 322 325 327 327 329 330 330 331 332 332 333 333 332 331 330 331 331 332 332 330 329 328 327 327 323 318 319 323 324 324 323 323 322 321 321 323 326 330 331 330 330 329 328 327 330 331 331 331 331 331 327 321 319 318 317 317 316 314 311 308 307 306 306 305 306 306 307 307 308
336 331 329 330 329 330 331 331 332 331 331 329 325 323 321 321 323 326 327 328 328 329 329 329 329 330 331 332 331 331 330 331 332 333 333 330 328 328 328 328 325 320 318 321 323 323 323 322 323 323 323 323 326 330 330 330 330 330 329 328 329 331 331 331 331 330 325 323 323 321 321 320 318 316 313 310 307 306 306 307 308 309 310 310 310
338 333 331 331 329 330 330 331 332 332 332 331 327 325 323 322 323 325 325 325 326 327 328 327 326 329 330 332 331 329 330 331 332 333 333 330 328 329 328 326 323 320 318 321 324 323 322 323 323 324 325 326 327 329 329 330 331 331 330 330 329 329 330 331 331 329 324 323 324 323 323 322 320 317 314 311 308 308 308 309 311 311 312 313 314
339 338 336 335 332 330 330 332 333 333 333 332 330 329 326 322 322 323 323 322 323 324 325 324 325 329 330 332 331 329 330 331 331 332 332 329 327 329 328 324 320 318 318 323 326 323 322 324 324 324 327 330 331 330 328 329 331 332 331 331 330 329 330 330 331 329 325 324 324 323 322 320 317 315 313 310 309 313 315 314 316 317 317 318 318
339 339 339 338 336 331 330 332 334 333 333 333 332 332 330 325 323 324 324 323 324 323 321 321 324 329 330 331 331 329 329 330 332 332 331 329 327 329 327 322 320 318 317 322 327 326 325 325 325 326 328 331 332 331 330 329 330 331 332 331 331 331 330 330 330 329 327 325 323 322 320 317 314 313 311 308 311 318 320 319 319 320 321 322 322
339 338 338 339 338 335 333 333 334 334 334 334 333 333 332 330 327 326 327 326 327 325 323 323 325 328 330 330 330 329 328 330 332 331 331 330 328 330 328 323 323 322 320 323 327 327 327 327 327 328 329 329 330 330 331 331 329 329 331 332 331 331 330 330 330 328 328 327 324 322 318 314 312 311 309 309 315 320 322 322 322 322 323 323 324
339 339 338 338 337 336 336 335 335 335 336 335 334 333 333 333 331 328 328 328 329 328 327 327 326 328 329 330 329 328 328 329 331 331 331 330 329 331 330 326 326 327 325 325 325 325 326 329 329 330 330 328 329 330 330 331 330 328 329 330 331 330 329 329 329 328 328 327 325 321 316 314 313 313 311 312 316 321 323 325 326 326 326 326 326
337 339 338 338 337 336 336 337 336 336 337 335 334 334 333 334 333 331 329 329 331 330 330 330 329 329 329 330 330 328 328 328 330 331 330 329 330 331 331 328 328 328 329 329 327 328 328 330 330 330 330 329 330 331 330 330 331 329 328 328 330 329 328 328 328 328 328 327 324 320 316 314 314 314 314 316 319 322 325 326 327 327 327 327 328
337 337 336 337 338 336 336 337 337 337 337 335 334 334 334 335 334 333 332 331 332 332 332 331 331 331 331 331 331 330 329 328 329 331 330 330 330 331 331 330 330 328 330 330 330 330 330 330 330 330 331 331 331 331 330 330 331 330 328 329 329 329 328 328 329 329 328 327 324 320 317 316 317 317 317 320 323 325 326 327 327 327 326 326 327
338 337 332 333 336 336 336 337 337 338 337 335 334 334 334 334 333 333 334 333 333 333 333 332 332 332 332 331 331 331 330 329 330 331 331 330 331 330 330 331 330 328 328 330 331 331 330 330 331 331 331 331 331 330 330 330 330 330 329 329 329 329 328 329 330 330 328 327 325 322 320 320 320 322 322 324 326 326 326 325 325 324 324 325 326
337 338 332 330 334 336 336 336 337 338 337 336 335 334 334 333 333 333 334 334 333 334 334 333 333 332 332 332 332 332 331 330 331 331 330 330 331 331 330 330 328 327 328 330 331 331 330 330 331 332 331 331 330 330 330 330 330 330 330 329 329 329 328 329 330 329 328 328 327 324 323 323 324 325 325 325 325 325 324 323 323 322 323 324 325
337 339 333 330 333 335 336 337 337 338 336 336 335 334 334 334 333 333 333 334 334 335 335 334 333 332 332 332 333 333 331 331 331 331 330 331 331 330 330 328 326 326 328 329 330 331 331 330 331 331 330 330 330 330 330 330 329 329 329 329 329 329 328 329 329 329 328 328 327 326 325 325 326 326 325 325 324 323 323 322 322 321 320 321 322
337 339 336 334 335 335 336 336 336 338 337 335 335 334 335 334 334 333 334 334 334 335 335 335 334 333 333 332 333 333 331 331 331 332 332 332 331 330 330 328 324 325 327 328 328 329 330 330 331 330 329 329 329 330 330 330 330 329 329 329 329 329 328 328 329 328 328 328 328 326 326 326 326 326 326 325 323 323 323 322 320 320 318 318 320
337 338 337 336 336 333 331 331 334 337 337 336 335 335 335 334 334 334 334 335 335 335 334 334 333 332 332 332 333 333 332 331 331 332 332 331 330 328 328 326 325 326 327 327 328 326 327 330 331 330 329 330 330 330 330 330 329 329 329 329 328 329 328 328 328 328 328 328 328 327 327 327 326 326 325 324 323 324 322 320 319 318 318 318 320
337 337 337 336 336 333 328 328 334 337 337 336 336 335 334 334 334 334 335 335 334 334 333 333 331 330 331 331 332 333 332 331 331 332 331 330 328 326 326 325 325 327 326 327 328 327 327 330 331 331 330 330 330 330 330 330 329 329 329 329 329 328 328 327 328 328 328 329 328 327 327 326 325 325 325 324 324 324 323 321 320 318 319 319 320
336 336 335 334 335 334 330 331 336 338 337 336 334 334 333 334 334 334 334 334 334 333 333 332 330 329 329 330 331 333 333 332 331 331 330 329 328 326 326 326 326 327 326 326 327 328 329 331 331 331 331 329 329 330 330 330 329 329 329 329 329 329 328 328 328 329 328 328 328 327 326 325 325 325 325 324 325 325 324 324 322 320 319 319 320
335 334 331 330 334 334 333 335 337 338 337 336 334 333 333 334 334 334 334 333 333 332 332 332 330 329 329 330 332 332 332 332 330 327 327 328 327 326 327 328 327 327 326 326 327 328 330 331 331 330 330 330 330 329 329 329 329 329 329 329 329 329 329 329 329 328 327 327 327 326 326 326 326 325 325 325 326 326 325 324 322 319 318 317 318
335 333 329 328 330 330 331 335 337 337 337 335 334 334 334 335 335 335 334 333 332 332 332 332 330 329 330 331 332 332 331 331 329 325 325 327 327 326 327 328 327 326 326 325 327 328 329 330 330 329 330 331 330 329 329 329 329 329 329 328 329 329 329 329 328 328 327 327 326 326 326 326 326 326 326 326 326 326 325 323 321 318 316 316 317
336 334 330 328 325 324 327 332 334 336 336 335 335 334 334 335 335 335 334 333 332 332 332 331 331 330 330 331 331 331 330 329 329 326 325 326 326 325 326 328 327 326 326 326 327 329 329 329 330 328 328 329 329 329 329 329 329 329 329 328 328 328 328 329 328 328 327 327 326 327 327 327 326 326 326 326 326 325 324 323 322 319 318 316 316
334 335 330 325 323 322 325 330 332 334 335 335 335 334 334 335 335 335 334 333 333 331 331 331 331 330 330 330 330 330 330 329 329 326 325 326 326 326 327 327 327 326 325 326 328 328 328 329 330 329 328 328 329 329 330 330 330 329 328 327 328 327 327 328 328 328 327 327 327 327 327 326 326 326 326 325 324 324 323 323 322 322 320 318 317
332 334 330 327 325 320 324 331 332 334 336 336 336 334 333 335 335 334 334 333 332 331 331 331 330 330 329 330 330 329 329 328 328 326 325 326 327 326 327 327 327 326 325 325 328 327 327 328 329 329 328 327 328 329 329 330 330 329 328 327 327 326 326 327 328 328 328 328 328 327 326 326 326 326 326 324 323 323 322 321 322 322 321 320 318
333 335 335 335 334 328 328 333 333 335 336 337 337 335 333 333 333 333 333 332 331 331 331 331 330 329 329 330 329 329 328 328 327 326 326 327 327 327 327 327 327 325 323 325 327 327 328 329 329 329 328 328 328 328 328 328 329 329 328 327 327 326 325 326 327 327 327 328 327 327 326 325 325 325 324 323 323 322 320 320 321 321 322 320 316
332 334 336 336 336 336 335 335 334 335 336 336 336 334 333 333 332 333 333 332 331 331 331 331 331 330 329 330 330 329 328 328 327 326 327 327 327 326 326 326 326 324 322 324 326 328 329 329 329 328 329 329 328 327 327 328 328 328 328 328 327 326 326 325 325 326 326 327 327 327 326 325 324 324 323 323 322 320 318 319 319 319 319 318 312
332 333 333 333 335 337 338 337 336 336 337 336 336 335 334 333 333 332 332 332 332 332 332 331 330 329 329 329 329 329 329 328 327 326 326 327 326 326 325 324 323 322 322 323 325 328 329 329 329 328 328 329 329 328 328 328 327 327 328 328 327 326 326 325 325 326 325 326 327 327 326 325 323 323 323 323 320 319 318 319 318 316 315 313 308
334 334 332 333 335 336 336 336 336 337 337 337 336 336 335 334 334 333 331 332 332 332 331 330 329 328 328 329 329 329 329 328 326 326 326 326 326 326 326 325 324 323 324 325 326 328 328 328 328 327 327 328 329 329 329 328 326 327 328 327 326 327 326 325 326 326 325 325 326 325 325 324 323 323 324 323 320 319 320 319 318 317 315 312 308
334 334 335 335 335 332 332 334 336 337 337 337 337 337 336 335 335 333 331 331 332 331 330 329 329 328 328 329 328 328 329 327 326 326 326 327 327 327 328 328 326 326 326 327 327 328 328 328 328 327 327 328 329 329 329 328 327 327 327 327 327 326 326 325 325 326 326 325 325 324 323 323 323 323 323 322 319 319 320 319 318 317 315 312 308
Wind_Speed
27 28 28 27 27 26 26 26 24 24 24 24 24 22 21 21 19 18 19 21 22 22 22 21 20 20 20 20 19 18 18 17 17 16 14 14 13 14 15 15 16 16 16 17 18 20 21 22 22 20 20 20 21 21 22 24 25 24 24 23 21 20 21 21 21 20 20 20 19 18 18 18 18 17 17 17 17 17 17 17 17 17 17 16 14
27 27 28 27 26 26 26 25 24 24 24 24 24 22 21 21 19 18 19 21 22 21 22 21 20 20 20 20 19 18 18 18 17 16 14 14 13 14 15 15 15 15 15 17 17 20 21 21 22 22 21 21 22 22 22 23 24 25 25 24 22 22 22 21 20 19 19 19 18 18 19 18 17 16 16 16 16 16 16 16 16 16 16 14 14
26 27 27 27 26 26 26 25 24 23 24 24 23 22 21 21 20 19 19 21 21 21 21 21 21 20 20 20 19 18 18 17 17 16 14 14 13 13 14 15 16 16 16 17 17 19 20 21 23 23 22 22 22 22 23 24 24 24 24 24 23 23 22 20 19 18 17 16 16 17 17 17 17 16 15 15 14 14 14 14 13 13 13 11 12
23 25 27 27 26 26 26 25 24 23 24 24 23 22 21 21 20 19 19 21 21 21 20 20 20 20 20 19 19 18 17 17 16 15 15 13 12 13 14 16 17 17 18 18 18 19 21 21 23 24 24 24 23 24 25 25 24 24 23 23 22 21 20 18 17 16 15 14 13 13 14 15 15 14 13 12 11 11 11 10 9 9 9 8 9
21 25 26 26 26 25 26 25 24 23 24 24 23 22 21 21 20 20 19 20 21 21 20 19 19 19 19 19 18 17 16 16 16 15 14 13 12 12 13 15 16 17 19 19 19 19 21 23 25 26 27 27 25 24 25 23 22 22 20 20 19 18 17 16 14 13 12 12 10 10 10 10 11 11 10 9 9 8 7 7 6 6 6 6 6
21 24 25 25 25 24 25 25 24 23 23 23 22 21 21 21 20 20 19 20 20 20 20 19 19 18 18 18 17 16 16 15 15 14 14 13 12 12 13 15 15 17 19 20 20 20 22 24 27 28 28 27 25 24 23 22 21 19 17 16 14 14 13 13 12 12 12 13 10 8 8 7 7 9 8 8 8 7 7 8 7 5 5 6 5
21 24 24 24 25 24 24 24 24 23 22 23 22 21 21 21 21 20 20 19 19 20 19 19 18 18 17 17 17 16 15 15 14 14 13 12 12 12 13 14 15 17 18 19 21 22 23 25 28 29 28 27 25 24 23 22 20 19 16 14 13 13 13 11 11 13 14 13 11 8 7 7 8 10 10 9 9 9 9 10 8 7 7 7 7
22 24 24 24 25 24 23 24 23 23 22 23 22 21 21 21 21 20 20 19 19 19 18 18 17 17 16 16 16 15 14 14 14 14 13 12 13 12 13 13 14 16 17 19 21 22 24 27 29 29 27 26 25 25 24 22 20 18 15 12 13 13 13 11 10 12 13 12 11 9 7 9 11 12 11 11 11 11 11 10 10 10 10 10 12
23 24 24 25 25 24 24 24 24 23 23 23 23 22 21 21 21 20 20 19 18 18 17 17 16 16 16 15 15 14 14 13 13 13 13 13 13 13 12 12 13 15 16 19 21 22 25 29 29 28 27 26 26 25 24 22 20 16 12 11 11 12 13 11 9 10 11 10 11 9 8 9 12 12 13 12 12 12 12 12 13 14 15 16 16
24 24 24 24 25 25 24 24 24 23 23 23 23 22 21 21 21 20 20 19 18 17 16 16 15 15 15 15 14 13 13 13 13 13 13 14 13 13 12 11 12 14 16 18 20 21 25 29 28 27 27 26 26 25 24 22 18 14 10 10 10 10 11 11 9 8 8 9 10 9 9 10 12 14 15 14 14 15 15 16 16 17 18 18 18
24 24 24 23 24 24 23 23 23 23 23 23 23 23 21 20 20 20 19 18 18 16 15 14 14 14 14 14 13 12 12 12 13 14 14 15 14 13 12 11 12 13 15 18 19 21 24 27 28 27 26 25 25 24 22 19 16 12 9 8 9 9 10 10 8 6 6 8 8 8 10 12 15 16 16 15 16 17 17 17 17 17 17 18 18
25 24 23 22 23 23 23 22 22 23 23 23 23 22 21 20 19 19 19 18 17 16 14 13 13 12 12 12 12 12 11 11 12 14 14 15 15 13 12 11 11 12 14 17 18 19 22 26 27 27 26 25 24 23 20 17 15 12 9 7 8 8 9 10 8 6 5 6 5 9 11 14 17 17 16 16 16 17 18 17 17 17 17 19 17
25 23 22 21 22 21 21 21 21 22 22 23 23 22 21 20 19 18 18 17 16 15 14 13 12 12 12 12 11 11 11 10 11 13 14 15 15 13 12 11 11 12 13 16 17 18 20 24 26 26 25 25 24 22 19 16 14 12 9 7 8 9 10 10 10 8 5 4 7 11 14 16 18 17 17 16 16 17 17 17 17 16 17 18 17
23 22 21 20 20 20 20 20 20 21 21 22 22 22 21 20 19 18 17 16 15 15 14 13 12 11 11 11 11 11 11 11 12 13 14 14 14 13 13 12 12 12 13 15 16 16 18 23 25 25 25 25 23 21 18 16 14 11 9 7 7 9 10 11 11 9 7 8 10 13 15 17 17 17 16 16 16 16 17 17 16 16 16 16 16
20 21 19 19 19 18 18 19 20 20 21 21 21 21 20 19 18 17 16 16 15 15 14 14 13 12 11 11 11 11 10 11 12 13 14 15 15 14 13 12 11 11 13 14 16 16 17 22 24 25 26 26 23 20 18 15 13 11 8 7 7 9 11 12 11 9 9 11 11 12 15 16 16 15 15 15 16 15 16 16 16 16 16 15 16
18 20 18 20 20 18 18 19 20 19 20 20 20 20 19 19 18 18 17 17 16 15 14 14 13 12 12 11 11 11 10 11 12 14 15 15 14 14 13 12 11 10 12 14 15 16 17 21 24 26 27 25 22 20 16 13 12 10 8 7 7 9 12 12 11 10 10 11 11 11 13 14 14 14 14 14 15 14 15 15 15 15 15 15 15
16 18 18 21 21 21 20 20 20 19 18 19 19 19 19 19 19 19 19 19 18 16 15 13 13 13 12 11 10 10 10 11 12 14 15 14 14 14 13 11 10 10 12 14 15 16 17 20 24 27 27 25 22 18 15 12 10 9 7 7 7 10 12 12 11 10 10 10 9 9 11 12 12 12 13 13 13 13 14 13 13 13 13 13 14
14 16 19 21 23 22 22 21 20 19 18 19 19 19 19 20 19 20 20 19 18 16 15 14 14 13 13 12 10 10 11 11 12 14 15 15 14 13 13 10 9 10 12 13 15 16 17 20 24 26 27 25 22 18 14 12 9 8 8 7 8 9 12 12 10 10 9 8 7 7 9 10 10 11 12 12 12 12 12 12 12 12 12 12 13
13 15 18 21 23 23 22 21 20 20 19 19 20 19 19 19 19 19 18 18 17 15 14 14 14 13 13 12 12 12 12 13 13 14 15 15 14 13 12 10 9 10 12 13 14 16 16 20 23 24 25 24 21 18 14 10 9 7 7 7 8 9 11 11 11 9 8 7 6 7 7 8 8 9 11 11 11 11 11 11 11 11 11 12 12
12 16 19 20 22 22 23 21 21 20 19 19 19 20 19 18 18 18 18 17 16 15 14 14 13 12 12 13 14 14 14 15 14 14 14 14 14 12 11 11 10 10 12 13 14 15 16 18 21 23 24 24 22 18 14 10 7 6 6 7 8 9 10 10 11 9 7 6 5 6 6 6 6 8 10 10 10 10 10 9 9 10 10 10 11
14 19 19 19 21 21 22 22 22 21 19 19 19 20 19 19 19 19 19 18 17 15 14 13 13 13 13 14 14 15 15 16 15 14 14 14 14 12 10 10 10 11 13 14 14 15 15 16 20 22 23 23 22 18 14 9 6 5 5 6 6 8 10 11 11 8 7 6 5 4 4 4 5 7 8 8 8 8 8 8 8 8 9 9 10
18 22 20 19 20 20 21 21 21 20 20 20 20 20 20 20 20 20 19 18 17 16 15 14 13 14 14 14 15 15 16 15 15 14 14 14 14 13 11 10 11 12 13 14 14 14 15 15 18 21 21 22 21 18 14 10 7 5 5 6 5 6 9 10 11 10 6 5 6 4 4 5 5 6 7 7 7 6 7 7 7 8 8 9 9
22 24 22 20 18 18 19 19 19 20 20 20 20 20 20 21 20 20 19 19 18 17 15 15 15 15 15 16 15 16 16 15 14 13 12 12 13 13 12 11 12 12 14 15 15 14 15 15 17 19 21 21 21 19 15 12 8 5 4 5 5 5 8 9 10 11 7 4 4 4 4 4 5 5 6 6 6 6 6 6 7 8 8 9 9
24 23 22 20 19 18 19 19 20 20 20 19 19 20 20 21 20 20 20 20 19 17 16 16 16 16 16 16 16 16 16 15 14 13 12 11 13 13 12 12 12 13 14 15 15 15 15 15 17 19 21 22 21 19 16 12 8 5 2 4 3 4 6 7 9 11 8 3 2 3 3 4 4 4 5 5 5 5 6 6 7 8 8 9 9
24 22 22 21 20 19 19 20 21 20 20 19 19 20 20 21 21 21 21 20 20 19 17 17 17 16 16 16 16 17 16 15 14 13 12 10 12 12 12 12 12 13 14 16 16 15 15 16 17 19 21 21 20 19 15 12 9 5 3 3 2 3 3 5 7 10 9 4 1 2 2 3 3 3 3 3 4 4 5 7 8 8 9 10 10
22 23 24 22 20 20 19 19 20 20 20 19 20 20 20 21 21 21 21 21 20 19 18 18 17 16 16 16 17 17 16 15 13 12 11 10 9 9 10 10 11 12 14 16 16 16 16 16 18 19 20 19 18 17 15 13 10 7 5 3 1 1 1 3 5 8 8 4 1 1 1 2 2 3 3 2 3 4 5 7 8 9 10 10 10
17 22 23 22 21 20 19 19 19 19 18 18 20 20 20 20 20 21 21 20 20 19 19 18 17 17 17 16 17 17 15 14 13 11 10 9 9 9 9 10 10 12 15 17 17 17 17 17 18 19 19 17 16 15 14 13 10 8 6 4 3 2 2 2 4 6 6 3 1 1 1 1 2 2 2 3 3 4 6 8 9 10 10 10 10
13 19 19 19 20 20 19 19 19 18 17 18 19 19 19 20 20 20 20 20 20 19 19 18 18 18 17 16 16 16 15 14 14 13 10 9 10 9 9 9 10 13 16 18 19 18 17 17 17 18 18 16 14 13 13 12 10 8 6 5 4 4 5 4 3 3 3 2 2 1 2 2 1 1 2 3 4 5 8 10 10 10 10 11 11
13 17 16 17 18 20 21 20 20 18 18 18 18 17 18 19 20 20 19 19 19 19 19 19 19 18 18 17 17 15 14 14 15 14 12 11 10 9 9 9 10 13 18 19 20 18 17 17 17 18 17 14 12 11 11 10 10 9 7 6 6 6 7 5 4 2 1 2 2 2 2 2 2 2 3 4 6 7 9 10 11 11 11 11 11
15 14 15 16 16 20 23 22 20 19 19 18 17 17 17 19 20 20 19 18 18 18 19 19 19 18 18 17 17 16 14 14 15 15 14 12 11 10 10 11 12 13 17 19 20 19 17 16 16 16 15 13 11 10 9 7 9 11 10 8 8 8 8 7 6 4 2 3 2 2 2 3 4 4 5 6 7 8 9 10 11 11 11 10 10
18 15 16 17 15 19 23 23 22 21 20 18 18 18 17 17 18 19 19 18 17 17 18 18 18 18 17 17 17 16 16 15 15 15 15 14 12 11 11 13 14 15 17 17 18 19 17 15 14 14 13 14 13 10 8 7 8 11 12 11 10 10 10 9 7 4 2 2 1 2 3 5 6 7 7 7 8 9 9 9 9 8 8 8 8
20 18 18 19 17 18 22 25 25 23 22 20 18 18 16 15 16 18 18 18 17 17 18 18 17 17 16 17 16 16 17 16 16 16 16 15 14 13 13 14 15 15 17 17 17 17 17 16 15 14 12 14 13 10 9 8 9 11 13 13 12 10 10 10 8 5 2 0 1 3 5 7 8 8 8 8 9 10 9 7 6 5 4 4 5
19 17 16 19 18 20 24 27 27 25 23 20 19 18 16 14 15 16 17 17 17 17 18 18 17 16 16 16 16 16 16 17 16 16 17 16 15 15 15 15 16 15 15 15 15 15 16 16 17 15 13 12 11 10 10 11 10 11 13 13 13 11 9 10 9 5 3 2 2 4 6 8 9 8 8 8 8 9 8 6 5 4 3 3 3
20 17 12 16 19 22 26 29 29 27 24 21 19 18 15 14 14 15 17 17 17 18 18 18 17 17 17 17 17 17 16 17 16 17 18 18 17 17 16 15 16 16 15 14 14 13 15 17 17 14 12 12 11 10 10 12 12 11 12 12 12 11 10 11 9 6 3 3 3 5 6 8 8 7 6 6 6 7 7 6 5 4 4 3 3
22 18 13 15 19 24 29 31 30 28 24 21 19 19 17 16 15 15 17 18 17 18 18 18 18 18 18 19 18 17 17 18 17 18 19 19 19 18 17 16 15 15 16 16 15 14 15 17 17 15 14 13 12 12 10 11 12 12 13 12 11 11 10 11 9 6 4 3 4 5 6 7 7 6 6 6 6 6 6 6 6 5 4 3 3
22 21 17 17 18 23 29 31 29 27 23 21 20 20 19 18 17 17 17 18 18 18 18 18 18 18 19 19 19 18 18 19 19 20 21 21 20 18 18 16 14 14 16 17 16 16 17 17 16 15 15 14 13 13 12 11 11 12 13 13 11 11 11 11 9 7 5 5 5 6 7 7 7 6 6 6 6 6 6 5 5 4 4 4 3
22 22 19 18 18 21 26 25 25 25 22 21 21 21 20 19 18 18 18 19 18 19 19 19 19 19 19 19 19 19 20 21 21 22 24 24 22 20 18 16 16 16 15 16 16 17 18 17 17 15 14 15 14 14 12 11 11 11 14 14 12 12 11 11 10 9 7 6 6 6 7 6 6 6 6 6 6 6 5 4 4 4 4 4 4
20 22 20 19 20 20 21 21 22 24 23 22 21 21 21 20 20 20 19 20 20 20 21 20 20 20 20 19 19 20 21 22 24 26 25 24 21 19 17 16 17 16 14 15 16 17 19 19 18 15 14 14 14 13 12 12 12 12 14 14 13 12 12 11 10 10 8 7 7 7 7 6 5 6 7 7 7 6 5 4 5 5 4 4 5
20 21 20 20 21 20 19 21 23 25 24 22 21 21 21 21 21 21 20 21 21 21 21 21 22 21 21 20 19 21 22 22 25 26 25 23 20 17 16 16 17 15 13 15 15 17 18 18 18 15 14 13 12 12 11 11 12 13 14 14 14 14 12 11 10 10 9 8 8 8 6 5 6 7 7 7 7 6 5 5 5 5 4 5 6
20 21 21 20 21 21 20 22 24 25 25 23 22 23 23 22 22 21 21 22 22 22 21 21 21 21 21 20 21 22 22 23 23 22 21 19 15 14 16 16 16 14 13 14 14 16 17 17 16 15 14 14 12 11 11 11 13 14 15 15 15 14 13 11 10 10 9 9 9 9 7 7 8 8 8 8 7 6 6 5 5 6 5 5 6
21 22 22 20 19 20 20 22 24 26 27 26 24 24 24 24 22 21 23 23 23 22 21 21 21 21 21 21 21 22 22 22 21 18 16 14 12 14 16 16 16 15 14 15 14 15 16 15 14 13 13 13 13 13 12 13 15 16 16 16 14 13 14 12 11 12 11 10 10 9 9 9 9 9 9 9 8 7 6 5 6 6 6 6 7
24 24 23 20 19 18 18 21 23 26 28 27 24 23 23 23 21 20 21 22 21 21 21 21 22 22 21 21 22 23 24 24 21 17 15 15 15 16 16 16 16 15 14 15 15 15 15 15 14 13 13 13 13 14 15 15 18 19 19 17 15 13 13 12 11 11 10 9 9 10 10 11 10 10 9 10 9 7 6 6 7 7 6 6 7
27 26 24 21 17 14 16 20 24 27 28 26 23 21 21 21 20 18 19 20 19 20 21 20 21 22 21 21 22 24 24 24 21 16 16 17 16 16 16 15 15 14 14 16 16 15 15 15 15 14 14 14 13 14 16 17 18 20 20 18 17 15 13 12 12 11 10 10 10 11 12 12 12 11 10 10 9 7 8 7 7 7 6 6 6
29 29 28 22 18 18 22 23 24 28 28 25 22 19 18 19 19 18 18 19 18 18 19 20 21 21 21 22 23 23 22 21 19 17 17 18 16 15 15 14 13 13 14 16 16 16 16 16 16 15 15 16 17 17 18 19 18 19 20 18 17 16 15 15 15 13 12 12 11 11 12 12 12 11 10 9 8 6 7 7 6 6 6 6 6
32 31 28 23 22 23 25 26 25 27 27 25 23 21 20 21 21 20 19 20 20 19 20 21 22 22 22 23 23 23 21 20 19 18 19 19 17 16 15 14 14 14 15 15 15 15 15 16 16 15 15 16 17 19 21 21 19 19 18 16 14 15 17 19 18 15 14 14 13 11 11 13 13 12 11 9 7 5 5 6 6 5 5 6 5
31 30 28 25 25 26 27 28 25 25 27 26 24 23 22 23 24 24 24 23 22 23 22 22 23 23 23 23 23 23 22 20 19 18 19 19 17 16 15 15 16 16 16 16 15 16 16 15 15 15 15 15 16 18 22 22 21 20 19 16 14 14 17 22 20 16 15 15 14 13 13 13 13 13 11 7 5 3 4 6 5 5 6 5 4
29 30 31 27 24 26 27 26 24 25 27 27 26 25 23 24 24 25 25 24 24 23 22 21 22 22 22 23 23 23 22 21 19 19 19 18 17 16 15 16 17 18 17 16 16 17 16 15 15 15 15 16 16 18 21 22 22 22 20 18 16 13 15 21 23 20 18 16 15 16 16 14 13 12 9 6 3 2 5 6 5 5 5 4 3
28 30 32 27 22 23 24 23 23 24 26 28 28 27 25 24 24 24 24 23 22 21 20 21 22 21 22 23 23 23 23 22 20 19 18 17 16 16 15 17 18 19 18 16 17 16 15 16 16 16 17 17 18 18 19 21 22 23 22 20 17 13 13 19 21 20 21 19 18 18 18 16 13 11 9 7 3 3 6 6 5 5 4 3 3
28 29 30 28 26 24 23 23 23 24 27 29 30 29 26 24 23 23 22 21 21 20 19 20 20 20 21 24 24 23 23 23 21 19 17 15 15 15 16 17 18 18 17 17 17 16 16 16 16 17 18 19 19 19 18 19 21 21 22 21 19 13 12 18 19 18 20 22 22 22 21 19 16 12 10 8 5 5 7 7 6 5 3 3 4
27 29 27 26 26 24 23 25 26 27 29 31 31 29 26 25 24 22 21 21 21 20 19 19 20 20 21 25 25 24 24 24 22 19 17 16 16 17 17 17 16 16 17 17 18 18 17 16 16 16 18 18 19 20 18 17 19 21 21 21 20 17 16 21 22 19 21 23 24 25 24 21 19 16 13 10 7 7 7 5 5 4 3 1 3
20 23 26 25 22 20 22 27 28 29 32 33 31 29 26 26 25 23 22 22 22 21 21 21 21 21 23 25 25 25 25 24 22 20 18 17 17 18 17 16 16 17 17 17 17 18 17 16 16 16 17 18 19 20 19 18 19 21 21 20 19 17 17 22 23 21 23 23 23 26 24 21 20 18 15 11 8 7 6 5 3 3 4 1 3
Wind_Direction
166 161 161 158 158 156 153 151 151 151 147 143 138 137 135 134 135 136 144 148 146 143 142 140 140 138 138 138 138 138 135 132 127 120 111 104 98 95 94 93 94 99 99 95 97 103 106 105 104 105 104 102 102 101 93 89 90 92 93 94 96 98 98 97 97 98 96 94 94 94 94 93 91 90 90 90 90 91 92 92 92 91 89 87 87
169 163 163 160 159 156 154 153 153 153 150 146 141 140 138 136 136 136 141 147 148 145 144 143 141 140 140 140 139 138 135 132 127 119 113 108 101 97 97 96 95 98 96 93 98 102 106 107 107 107 105 104 106 104 96 90 88 90 92 93 94 94 93 92 92 92 92 94 96 95 94 92 91 89 89 89 90 91 91 91 92 91 90 91 91
169 164 164 160 160 157 154 155 155 156 153 149 145 143 140 139 137 137 139 145 149 146 146 145 144 143 142 141 140 138 135 132 126 122 118 112 107 102 102 100 96 95 94 95 101 104 108 110 111 111 107 106 106 102 95 93 92 91 92 92 91 90 88 88 89 88 87 90 94 96 96 95 92 90 90 91 90 92 93 91 90 91 94 98 96
171 165 165 160 159 157 156 156 157 158 155 153 148 146 143 141 139 138 138 143 148 148 148 147 147 145 144 143 141 139 135 132 128 126 122 118 112 108 104 101 99 97 96 97 102 111 113 111 113 111 110 109 106 100 94 94 93 91 90 91 90 89 88 87 86 85 84 85 88 93 97 99 99 97 95 96 94 91 92 91 91 95 97 95 90
172 167 165 160 159 158 157 158 159 160 157 155 152 149 146 144 141 139 139 142 147 149 150 151 150 148 147 145 143 141 136 134 132 130 127 124 119 113 106 101 101 100 100 100 101 111 116 114 113 112 112 111 107 102 96 94 93 92 91 91 92 92 90 87 84 83 82 82 84 87 90 94 97 97 95 95 92 85 84 91 97 99 95 88 83
173 168 165 159 158 158 159 160 161 162 160 158 155 153 149 147 144 142 141 142 145 148 150 152 153 152 151 148 145 142 139 138 137 135 133 131 126 118 110 105 103 100 101 103 103 108 114 115 116 115 114 111 107 102 98 95 92 92 91 92 95 94 92 90 86 81 79 77 77 77 74 72 83 90 89 88 85 84 85 87 90 89 86 84 81
173 168 164 159 157 158 160 162 163 163 162 161 159 156 153 151 148 144 143 143 144 146 149 153 155 155 154 152 148 144 142 143 144 143 140 138 133 126 117 111 104 99 101 105 108 111 116 118 119 118 115 112 108 102 97 94 91 91 92 94 95 91 88 88 86 79 74 70 68 67 62 62 84 93 89 87 84 85 87 86 85 86 86 83 85
171 167 163 159 157 159 162 163 164 165 164 164 162 160 157 155 153 148 145 143 144 145 147 151 155 156 155 154 150 146 146 148 151 149 147 145 141 136 127 119 108 101 102 107 112 115 118 122 123 120 117 113 108 102 97 94 92 91 93 93 88 88 88 89 89 78 72 67 61 56 58 68 85 92 89 89 87 85 86 88 89 89 91 91 95
171 167 162 159 158 160 163 164 166 166 167 166 165 165 162 159 157 153 148 144 144 146 146 148 152 156 155 154 152 149 150 155 158 156 155 153 148 143 134 126 114 107 108 110 115 120 123 126 127 123 120 115 108 103 100 97 93 93 96 94 87 88 92 96 95 76 65 59 48 45 64 81 87 90 90 90 88 88 89 91 91 91 93 94 97
173 165 162 161 160 161 164 166 167 168 169 169 168 168 166 164 161 158 154 148 145 146 146 148 151 155 155 153 153 152 154 159 163 162 161 159 154 147 140 133 122 117 115 115 119 124 128 131 131 127 123 117 111 106 103 99 97 102 108 102 90 84 85 88 89 70 52 42 34 49 80 92 92 91 91 89 89 91 92 91 90 90 90 91 92
170 163 162 162 162 163 165 167 167 169 171 170 171 170 170 168 165 162 159 153 149 148 147 149 152 154 155 154 154 155 157 160 165 167 166 165 160 153 149 141 132 127 122 119 122 127 133 136 135 131 126 119 114 109 104 101 101 108 113 101 86 79 75 74 75 60 38 28 32 71 93 94 93 92 92 89 89 89 89 88 88 88 87 86 86
166 161 162 163 164 165 167 167 167 170 172 172 173 172 172 171 167 165 162 158 154 152 150 151 153 156 156 155 155 157 159 157 163 168 169 168 165 161 157 151 142 134 127 123 124 129 137 141 139 135 129 123 118 113 108 105 109 116 121 112 98 92 85 76 65 48 27 21 52 96 100 95 93 91 89 87 89 89 87 86 87 87 85 85 85
161 162 163 165 165 166 167 166 168 171 174 174 174 174 174 172 169 167 165 162 159 156 155 155 156 158 158 157 157 159 160 156 159 166 169 168 167 166 163 161 153 142 133 127 125 130 140 145 143 137 130 126 122 118 116 117 124 133 141 131 112 100 90 78 58 48 47 60 95 108 101 95 93 90 89 88 88 87 87 86 86 85 85 88 89
160 163 164 167 165 164 164 164 167 170 174 175 175 174 175 174 171 168 167 165 163 162 159 161 163 163 162 160 160 160 162 158 158 162 164 164 166 168 167 167 161 150 139 131 129 133 143 148 145 138 132 129 125 123 124 128 136 144 147 128 103 86 75 65 52 51 65 85 100 105 99 94 94 92 90 88 87 87 87 86 85 84 84 86 88
162 163 166 166 158 155 158 160 164 168 172 174 175 175 176 175 171 169 169 170 169 169 167 166 168 170 168 163 162 162 163 162 160 161 160 160 165 168 167 167 165 154 144 137 134 136 143 149 146 139 134 131 128 128 129 134 142 147 141 120 94 74 62 55 55 62 72 85 93 96 96 95 96 94 91 90 90 90 89 88 86 86 87 86 88
165 164 167 162 149 148 154 158 163 167 170 173 175 176 177 176 173 172 172 175 177 177 174 172 173 174 174 169 167 165 164 165 163 160 158 160 163 167 166 165 165 158 152 144 138 138 140 146 147 141 136 133 131 130 132 138 146 145 135 117 93 73 61 55 61 70 77 83 87 91 95 96 97 96 94 93 93 92 90 89 88 88 89 89 90
161 166 166 156 147 149 154 157 162 163 167 170 174 176 178 178 176 177 176 180 182 183 180 177 177 178 177 174 172 172 169 168 164 157 156 162 165 165 165 164 167 165 161 151 142 140 138 142 147 143 138 136 134 131 133 140 144 139 128 104 80 68 57 53 58 69 79 82 86 92 95 96 97 97 95 94 92 91 89 88 87 86 86 86 87
151 165 165 156 149 152 155 158 161 161 164 167 171 176 178 180 181 182 181 183 186 186 185 181 181 180 178 178 178 178 171 164 160 157 158 165 167 164 163 166 174 173 168 157 145 141 138 141 146 145 141 138 134 128 129 134 135 128 115 94 72 58 50 46 48 60 75 81 84 90 94 97 98 96 92 89 87 86 86 84 83 81 80 80 79
146 163 166 159 152 153 157 159 162 163 166 166 169 174 177 180 182 184 184 185 188 188 188 186 186 184 182 180 178 176 165 157 157 162 164 167 168 163 163 171 182 179 170 161 148 140 138 142 148 149 144 139 132 125 122 124 127 121 106 92 69 52 43 37 36 46 63 71 79 87 94 96 96 93 87 86 85 83 82 81 80 77 76 77 78
150 164 167 161 155 155 158 160 164 165 168 168 169 171 173 177 179 183 185 187 190 191 191 189 190 186 182 178 175 171 161 157 162 169 170 171 173 167 166 177 186 183 173 162 149 141 137 142 150 152 147 140 133 124 117 120 125 114 98 85 68 53 41 31 31 38 48 51 67 82 88 91 88 87 84 86 87 87 86 82 80 77 75 74 74
157 163 167 161 157 157 160 162 165 167 169 169 171 171 171 174 177 181 184 188 189 191 192 191 190 182 176 173 173 170 164 162 166 172 178 181 182 177 173 183 189 185 176 162 150 143 137 139 148 154 150 142 138 129 121 126 131 121 107 93 74 55 42 36 35 37 41 45 54 64 71 76 76 79 83 85 86 87 87 85 82 78 76 74 73
159 162 165 161 159 159 161 162 164 166 167 169 172 172 173 175 177 179 182 185 185 188 190 190 188 179 174 173 174 172 168 169 169 174 182 187 192 190 184 186 188 187 180 165 153 148 141 137 145 154 152 145 143 136 131 136 144 157 140 108 85 57 40 34 33 31 34 45 49 49 52 61 66 71 74 77 80 82 83 83 81 79 78 78 77
161 161 163 163 164 164 162 163 166 167 167 169 172 172 175 177 177 178 179 180 181 187 188 187 186 180 177 175 174 173 173 175 173 176 181 183 187 189 186 184 186 187 185 172 160 153 148 140 142 151 153 147 144 139 138 139 146 174 143 99 84 61 40 24 20 22 26 38 48 49 45 52 63 65 67 69 72 75 78 79 78 79 79 80 80
160 161 165 169 170 168 167 169 171 170 167 168 171 174 177 178 178 177 178 178 181 188 188 187 186 183 181 177 175 175 177 177 174 177 180 173 169 172 175 179 183 185 187 180 167 160 154 145 140 145 149 147 144 142 144 144 152 182 132 91 79 59 38 14 4 10 17 23 48 53 43 48 61 66 68 66 67 67 71 74 76 77 78 81 82
161 167 173 175 175 174 174 177 176 171 169 170 171 174 177 179 178 177 179 181 183 188 188 189 188 187 185 180 179 179 179 179 177 179 180 172 163 163 167 172 177 180 187 184 174 167 160 151 143 144 148 148 146 147 150 152 161 177 151 126 93 65 45 9 349 354 3 4 38 64 52 53 61 73 77 71 68 66 66 71 74 77 79 80 80
168 178 181 179 179 181 183 185 182 174 171 172 174 176 179 181 180 179 181 185 187 189 189 191 192 190 189 185 185 184 182 182 180 180 181 175 167 164 165 169 171 175 184 184 177 171 165 158 151 149 152 153 150 153 157 159 166 175 169 179 194 137 56 356 337 342 354 357 25 86 83 68 69 75 88 90 80 75 76 79 80 82 81 81 81
177 186 183 182 184 187 191 193 189 182 177 176 178 178 181 183 183 184 186 190 192 192 192 194 195 195 193 192 191 188 184 182 180 181 181 175 170 165 166 170 172 174 179 183 180 173 167 163 160 156 156 156 154 156 160 160 169 182 187 205 227 253 271 301 320 337 352 358 3 67 64 54 69 79 99 109 103 96 93 90 88 86 85 84 83
186 194 188 188 191 195 197 200 199 192 185 184 186 182 183 185 188 190 192 196 198 197 199 198 198 197 196 196 197 193 187 184 182 182 183 176 173 171 172 175 176 175 176 181 181 175 169 168 167 164 160 159 162 165 165 165 175 189 198 205 221 254 264 275 304 331 356 352 338 5 14 9 31 85 106 114 118 111 106 100 94 89 87 85 84
192 200 198 194 194 201 202 206 208 200 192 193 193 188 186 188 191 196 197 201 204 203 204 204 201 198 198 198 199 199 195 191 186 185 185 181 179 181 182 175 170 173 175 179 182 179 175 173 173 171 167 164 168 174 175 176 183 195 204 205 211 228 242 258 277 284 310 323 326 344 12 29 49 99 110 118 124 119 113 106 98 93 88 84 83
186 200 209 201 195 203 205 211 214 206 200 198 200 196 191 192 194 198 201 204 205 205 206 207 204 201 201 201 202 204 205 200 191 188 187 184 184 186 185 171 161 164 171 178 182 180 176 178 181 176 172 168 168 177 184 190 194 203 210 213 219 226 236 247 256 260 275 297 315 353 37 67 87 107 114 123 128 123 116 107 99 93 88 84 79
182 196 212 207 200 203 206 213 215 210 207 203 204 202 197 197 198 200 203 205 206 204 205 208 208 205 205 206 205 206 206 203 196 193 190 186 188 187 181 168 157 156 160 169 178 178 176 181 183 174 174 174 174 187 200 203 204 211 218 222 229 241 249 246 243 246 252 284 335 45 74 95 101 109 118 127 129 121 109 99 91 81 74 77 76
185 195 206 205 206 208 209 214 213 212 211 207 206 207 204 201 203 205 205 207 208 208 207 210 211 209 210 209 208 206 203 201 198 196 193 189 189 185 178 165 153 154 155 158 163 168 172 177 178 175 182 183 184 201 214 214 211 214 220 225 233 244 249 240 238 234 200 160 60 85 102 111 108 109 116 121 123 118 108 99 90 80 71 70 73
185 192 201 205 209 211 213 217 213 212 213 209 208 211 210 205 206 211 210 209 211 214 213 214 215 215 216 214 211 209 205 204 200 196 195 191 188 184 177 160 150 154 156 157 156 158 166 175 181 184 188 189 196 213 224 226 219 214 218 222 229 234 231 229 233 224 171 130 104 115 118 115 111 111 112 112 114 115 115 114 108 103 100 88 87
182 182 194 209 211 209 213 218 213 211 213 210 211 214 212 209 210 215 216 214 214 217 218 218 219 221 224 221 216 214 212 211 205 198 195 192 189 185 177 162 155 159 163 168 167 165 170 178 188 192 192 195 204 219 232 232 222 214 212 212 220 223 216 218 222 212 177 144 130 129 123 118 115 115 116 113 113 117 120 123 118 110 106 102 106
184 179 185 204 209 209 214 216 210 210 213 209 210 213 214 214 212 216 217 218 219 219 220 221 223 225 224 222 219 218 216 214 207 199 196 192 190 185 174 168 166 166 171 181 183 179 180 184 193 197 196 199 206 218 230 230 223 216 212 211 217 218 210 211 211 199 183 159 146 139 129 125 123 121 121 119 119 123 122 119 117 114 115 117 116
189 181 187 199 202 209 215 214 209 210 212 207 207 211 217 219 215 215 217 220 222 221 222 223 225 224 221 220 221 220 217 213 207 200 197 193 189 184 178 177 179 175 178 191 194 190 189 194 201 202 201 202 207 215 219 222 223 220 215 214 214 208 205 207 203 193 184 168 161 149 137 133 131 129 127 125 125 124 118 112 114 118 127 131 130
191 186 193 199 191 200 211 212 211 212 211 207 206 212 218 220 219 217 219 221 223 223 223 223 223 222 220 222 222 219 215 211 205 199 196 193 186 185 187 188 191 185 183 197 202 196 197 204 208 208 208 210 213 214 215 219 222 217 209 208 206 200 199 202 200 197 189 177 172 159 146 142 140 144 143 136 130 124 116 114 121 127 131 132 133
189 190 194 195 182 187 203 210 214 213 213 212 209 213 218 220 221 221 221 223 224 224 223 223 222 223 223 223 221 216 212 209 205 199 196 193 185 186 194 201 202 193 191 200 201 199 201 206 210 211 212 215 219 220 221 221 217 207 199 197 197 191 189 195 201 200 191 182 179 166 155 152 153 158 155 147 139 129 119 120 124 125 129 131 131
181 186 191 194 182 180 192 206 212 211 214 215 212 215 218 220 220 221 221 222 224 223 222 223 224 224 224 221 218 213 208 209 209 202 195 190 185 191 203 209 205 194 196 203 199 200 201 202 208 211 212 215 218 218 217 213 205 198 194 190 187 185 186 191 199 198 191 186 184 178 170 165 164 162 158 154 148 135 124 121 119 117 120 130 132
173 178 186 191 183 177 186 203 210 209 212 214 213 217 219 220 220 220 221 220 222 224 224 223 223 223 221 218 216 211 206 208 213 210 199 191 191 201 203 202 198 189 197 208 203 203 203 201 205 208 212 216 210 201 202 202 193 187 188 187 184 184 186 190 194 192 190 189 185 182 176 167 163 160 157 156 153 146 133 120 115 112 109 119 125
171 174 181 186 183 181 188 201 207 207 212 214 215 218 220 221 223 223 223 222 223 225 225 222 220 220 217 216 214 208 205 204 210 217 213 206 205 202 195 192 194 192 202 213 210 207 207 206 208 210 214 217 207 195 195 198 191 181 178 179 180 181 181 183 192 194 192 189 182 176 172 169 164 161 161 160 157 153 141 125 124 119 109 112 116
174 174 179 181 182 187 194 201 207 210 213 216 217 220 224 227 231 230 227 226 225 224 225 222 218 216 214 215 212 205 204 199 202 215 218 214 208 198 193 193 197 199 206 215 213 212 213 212 214 214 212 213 209 200 194 195 193 186 178 172 172 178 180 181 190 195 190 183 176 171 172 173 166 164 167 162 156 148 138 134 131 124 114 111 109
179 177 177 176 177 195 211 207 208 214 216 217 215 215 224 231 234 232 231 231 228 225 226 224 220 217 214 215 210 205 203 198 200 214 215 209 203 196 195 198 201 203 210 216 214 213 217 218 221 222 214 206 203 201 198 197 196 188 176 171 174 175 173 181 189 187 183 180 174 174 177 174 164 163 165 156 149 143 139 137 132 127 120 109 105
183 180 178 181 181 198 221 218 211 215 218 215 208 202 211 224 228 229 233 235 233 228 224 222 223 223 218 215 211 206 205 202 206 216 210 203 201 197 197 200 200 203 212 217 213 214 219 220 223 225 219 205 196 196 197 200 205 197 180 172 175 175 173 182 185 180 180 178 177 183 180 173 167 163 161 151 144 143 143 143 141 135 121 108 108
188 184 181 186 187 195 215 219 213 214 216 212 202 193 199 210 215 219 224 228 229 227 220 217 221 222 218 215 212 208 208 208 211 213 206 202 203 202 200 199 197 204 213 215 212 215 220 222 224 224 219 210 199 195 195 200 208 209 202 189 180 182 186 185 180 178 182 178 181 188 173 164 166 163 158 155 148 146 156 159 148 133 117 112 118
192 191 187 188 196 202 209 211 211 213 214 213 204 197 200 207 210 213 216 219 221 221 219 216 214 214 214 214 212 209 209 209 208 206 201 201 203 201 201 201 201 207 213 211 209 215 221 223 224 222 217 211 206 200 198 199 201 205 214 214 205 205 200 186 177 176 179 179 181 178 163 162 168 165 162 161 152 142 172 172 149 132 131 130 137
192 196 196 197 203 209 210 207 207 211 213 212 208 205 205 206 210 214 217 219 219 220 222 219 215 214 214 212 209 205 205 205 203 201 198 198 199 199 202 204 204 209 213 210 208 214 221 224 223 221 214 208 209 209 205 201 198 200 207 211 215 225 215 195 184 177 173 175 177 169 164 170 174 172 169 167 165 179 191 181 159 153 156 152 157
194 197 200 202 201 202 207 209 210 211 213 212 211 212 211 206 206 212 218 221 222 223 224 222 220 219 215 210 206 201 201 202 203 203 201 199 200 202 205 206 206 211 213 209 210 214 218 222 221 217 211 208 210 213 212 208 204 202 202 205 211 220 216 204 194 183 173 168 167 168 168 173 176 178 174 168 180 201 180 167 153 158 171 173 164
199 200 201 203 202 199 203 211 214 214 215 214 213 216 215 207 204 208 214 218 220 223 225 224 221 219 213 207 203 199 199 201 202 202 201 199 202 208 210 211 210 211 211 209 210 214 216 219 219 213 209 209 211 213 216 217 212 205 202 203 206 206 202 200 196 188 178 167 164 170 171 173 178 180 177 172 174 172 157 140 130 128 137 173 167
204 203 205 208 206 204 205 212 215 215 215 214 215 218 216 209 206 208 211 213 215 219 222 220 215 211 206 201 200 199 199 200 199 196 194 195 203 211 213 213 212 210 209 208 208 213 216 215 214 214 210 209 210 211 215 218 213 207 205 203 202 199 194 193 193 189 182 172 169 172 173 176 179 177 176 179 175 169 155 132 123 98 64 91 165
217 210 209 212 212 215 219 215 213 215 216 214 216 221 217 212 211 209 209 209 211 214 214 213 209 202 198 196 196 197 197 198 197 194 192 194 201 208 210 211 210 209 209 209 207 211 214 211 208 210 209 208 209 210 210 212 210 206 206 205 203 202 198 193 191 189 185 180 174 172 174 181 180 172 171 178 185 184 165 136 127 65 37 29 174